P/2017 G1 ( PanSTARRS )

Japanese version
Home page
Updated on July 22, 2020

---------------------------------------------------------------------

* Profile

Discovery Date April 1, 2017
Magnitude 22.0 mag
Discoverer Pan-STARRS 1 telescope (Haleakala)

* Orbital Elements

Epoch 2016 May 12.0 TT = JDT 2457520.5
T 2016 May 13.58260 TT                                  MPCW
q   2.6208392            (2000.0)            P               Q
n   0.04612962     Peri.  218.32968     -0.46565104     -0.88289166
a   7.6998590      Node   259.49775     +0.82638765     -0.40930992
e   0.6596250      Incl.    3.53307     +0.31662685     -0.23014714
P  21.37
From 24 observations 2017 Mar. 25-Apr. 18, mean residual 0".2.

* Magnitudes Graph

        m1 = 13.5 + 5 log d + 10.0 log r

---------------------------------------------------------------------

The orbital elements are published on M.P.E.C. 2017-J52.
The magnitudes graphs are made with Comet for Windows.

---------------------------------------------------------------------

Copyright(C) Seiichi Yoshida (comet@aerith.net). All rights reserved.